<?xml version="1.0" encoding="UTF-8" standalone="no" ?>
<gpx xmlns="http://www.topografix.com/GPX/1/1" xmlns:xsi="http://www.w3.org/2001/XMLSchema-instance" xsi:schemaLocation="http://www.topografix.com/GPX/1/1 http://www.topografix.com/GPX/1/1/gpx.xsd" version="1.1" creator="VisuGPX - https://www.visugpx.com">
  <metadata>
    <name>Le pas du Facteur départ de MONTALIEU chartreuse</name>
    <desc><![CDATA[Randonnée aux cascades du plateau de saint Georges , la Flachère.]]></desc>
  </metadata>
  <trk>
    <name><![CDATA[20190415194450-FXGEH]]></name>
    <trkseg>
      <trkpt lat="45.38793" lon="5.95412">
        <ele>401</ele>
        <time>2019-04-08T10:59:29Z</time>
      </trkpt>
      <trkpt lat="45.38793" lon="5.95412">
        <ele>401</ele>
        <time>2019-04-08T10:59:29Z</time>
      </trkpt>
      <trkpt lat="45.38904" lon="5.95432">
        <ele>422</ele>
        <time>2019-04-08T11:00:29Z</time>
      </trkpt>
      <trkpt lat="45.39055" lon="5.95524">
        <ele>459</ele>
        <time>2019-04-08T11:01:29Z</time>
      </trkpt>
      <trkpt lat="45.39202" lon="5.95565">
        <ele>498</ele>
        <time>2019-04-08T11:02:29Z</time>
      </trkpt>
      <trkpt lat="45.39166" lon="5.95445">
        <ele>526</ele>
        <time>2019-04-08T11:03:29Z</time>
      </trkpt>
      <trkpt lat="45.39324" lon="5.95533">
        <ele>545</ele>
        <time>2019-04-08T11:04:29Z</time>
      </trkpt>
      <trkpt lat="45.39547" lon="5.95777">
        <ele>501</ele>
        <time>2019-04-08T11:05:29Z</time>
      </trkpt>
      <trkpt lat="45.39625" lon="5.95846">
        <ele>486</ele>
        <time>2019-04-08T11:06:29Z</time>
      </trkpt>
      <trkpt lat="45.39679" lon="5.95846">
        <ele>490</ele>
        <time>2019-04-08T11:07:29Z</time>
      </trkpt>
      <trkpt lat="45.4001" lon="5.96144">
        <ele>462</ele>
        <time>2019-04-08T11:08:29Z</time>
      </trkpt>
      <trkpt lat="45.40046" lon="5.96105">
        <ele>481</ele>
        <time>2019-04-08T11:09:29Z</time>
      </trkpt>
      <trkpt lat="45.40092" lon="5.96124">
        <ele>483</ele>
        <time>2019-04-08T11:10:29Z</time>
      </trkpt>
      <trkpt lat="45.40096" lon="5.96093">
        <ele>496</ele>
        <time>2019-04-08T11:11:29Z</time>
      </trkpt>
      <trkpt lat="45.404" lon="5.9606">
        <ele>598</ele>
        <time>2019-04-08T11:12:29Z</time>
      </trkpt>
      <trkpt lat="45.40524" lon="5.9601">
        <ele>649</ele>
        <time>2019-04-08T11:13:29Z</time>
      </trkpt>
      <trkpt lat="45.40615" lon="5.95992">
        <ele>655</ele>
        <time>2019-04-08T11:14:29Z</time>
      </trkpt>
      <trkpt lat="45.40686" lon="5.9584">
        <ele>696</ele>
        <time>2019-04-08T11:15:29Z</time>
      </trkpt>
      <trkpt lat="45.40747" lon="5.95782">
        <ele>692</ele>
        <time>2019-04-08T11:16:29Z</time>
      </trkpt>
      <trkpt lat="45.4079" lon="5.95645">
        <ele>735</ele>
        <time>2019-04-08T11:17:29Z</time>
      </trkpt>
      <trkpt lat="45.40711" lon="5.95656">
        <ele>789</ele>
        <time>2019-04-08T11:18:29Z</time>
      </trkpt>
      <trkpt lat="45.40653" lon="5.95638">
        <ele>855</ele>
        <time>2019-04-08T11:19:29Z</time>
      </trkpt>
      <trkpt lat="45.40572" lon="5.95674">
        <ele>856</ele>
        <time>2019-04-08T11:20:29Z</time>
      </trkpt>
      <trkpt lat="45.40531" lon="5.95616">
        <ele>879</ele>
        <time>2019-04-08T11:21:29Z</time>
      </trkpt>
      <trkpt lat="45.40572" lon="5.95595">
        <ele>903</ele>
        <time>2019-04-08T11:22:29Z</time>
      </trkpt>
      <trkpt lat="45.40585" lon="5.95497">
        <ele>935</ele>
        <time>2019-04-08T11:23:29Z</time>
      </trkpt>
      <trkpt lat="45.40559" lon="5.95443">
        <ele>942</ele>
        <time>2019-04-08T11:24:29Z</time>
      </trkpt>
      <trkpt lat="45.40582" lon="5.95277">
        <ele>945</ele>
        <time>2019-04-08T11:25:29Z</time>
      </trkpt>
      <trkpt lat="45.40567" lon="5.9518">
        <ele>951</ele>
        <time>2019-04-08T11:26:29Z</time>
      </trkpt>
      <trkpt lat="45.4058" lon="5.95086">
        <ele>947</ele>
        <time>2019-04-08T11:27:29Z</time>
      </trkpt>
      <trkpt lat="45.40536" lon="5.94977">
        <ele>942</ele>
        <time>2019-04-08T11:28:29Z</time>
      </trkpt>
      <trkpt lat="45.40632" lon="5.94822">
        <ele>930</ele>
        <time>2019-04-08T11:29:29Z</time>
      </trkpt>
      <trkpt lat="45.40885" lon="5.95129">
        <ele>915</ele>
        <time>2019-04-08T11:30:29Z</time>
      </trkpt>
      <trkpt lat="45.4104" lon="5.95313">
        <ele>870</ele>
        <time>2019-04-08T11:31:29Z</time>
      </trkpt>
      <trkpt lat="45.41098" lon="5.95306">
        <ele>886</ele>
        <time>2019-04-08T11:32:29Z</time>
      </trkpt>
      <trkpt lat="45.41156" lon="5.95295">
        <ele>899</ele>
        <time>2019-04-08T11:33:29Z</time>
      </trkpt>
      <trkpt lat="45.41232" lon="5.95371">
        <ele>922</ele>
        <time>2019-04-08T11:34:29Z</time>
      </trkpt>
      <trkpt lat="45.41374" lon="5.95443">
        <ele>950</ele>
        <time>2019-04-08T11:35:29Z</time>
      </trkpt>
      <trkpt lat="45.41698" lon="5.95591">
        <ele>949</ele>
        <time>2019-04-08T11:36:29Z</time>
      </trkpt>
      <trkpt lat="45.41617" lon="5.95356">
        <ele>955</ele>
        <time>2019-04-08T11:37:29Z</time>
      </trkpt>
      <trkpt lat="45.41578" lon="5.95269">
        <ele>963</ele>
        <time>2019-04-08T11:38:29Z</time>
      </trkpt>
      <trkpt lat="45.41592" lon="5.95208">
        <ele>981</ele>
        <time>2019-04-08T11:39:29Z</time>
      </trkpt>
      <trkpt lat="45.41567" lon="5.95044">
        <ele>999</ele>
        <time>2019-04-08T11:40:29Z</time>
      </trkpt>
      <trkpt lat="45.41564" lon="5.94886">
        <ele>1015</ele>
        <time>2019-04-08T11:41:29Z</time>
      </trkpt>
      <trkpt lat="45.41478" lon="5.9483">
        <ele>1001</ele>
        <time>2019-04-08T11:42:29Z</time>
      </trkpt>
      <trkpt lat="45.41467" lon="5.94728">
        <ele>1011</ele>
        <time>2019-04-08T11:43:29Z</time>
      </trkpt>
      <trkpt lat="45.4118" lon="5.94524">
        <ele>1006</ele>
        <time>2019-04-08T11:44:29Z</time>
      </trkpt>
      <trkpt lat="45.40835" lon="5.94557">
        <ele>969</ele>
        <time>2019-04-08T11:45:29Z</time>
      </trkpt>
      <trkpt lat="45.40683" lon="5.94546">
        <ele>952</ele>
        <time>2019-04-08T11:46:29Z</time>
      </trkpt>
      <trkpt lat="45.40585" lon="5.94448">
        <ele>952</ele>
        <time>2019-04-08T11:47:29Z</time>
      </trkpt>
      <trkpt lat="45.40406" lon="5.94409">
        <ele>945</ele>
        <time>2019-04-08T11:48:29Z</time>
      </trkpt>
      <trkpt lat="45.40314" lon="5.94297">
        <ele>949</ele>
        <time>2019-04-08T11:49:29Z</time>
      </trkpt>
      <trkpt lat="45.40228" lon="5.94236">
        <ele>945</ele>
        <time>2019-04-08T11:50:29Z</time>
      </trkpt>
      <trkpt lat="45.40142" lon="5.94019">
        <ele>945</ele>
        <time>2019-04-08T11:51:29Z</time>
      </trkpt>
      <trkpt lat="45.40099" lon="5.93961">
        <ele>929</ele>
        <time>2019-04-08T11:52:29Z</time>
      </trkpt>
      <trkpt lat="45.40036" lon="5.94026">
        <ele>914</ele>
        <time>2019-04-08T11:53:29Z</time>
      </trkpt>
      <trkpt lat="45.39942" lon="5.93914">
        <ele>877</ele>
        <time>2019-04-08T11:54:29Z</time>
      </trkpt>
      <trkpt lat="45.39957" lon="5.93817">
        <ele>876</ele>
        <time>2019-04-08T11:55:29Z</time>
      </trkpt>
      <trkpt lat="45.39767" lon="5.93651">
        <ele>849</ele>
        <time>2019-04-08T11:56:29Z</time>
      </trkpt>
      <trkpt lat="45.39534" lon="5.93369">
        <ele>827</ele>
        <time>2019-04-08T11:57:29Z</time>
      </trkpt>
      <trkpt lat="45.39455" lon="5.93465">
        <ele>810</ele>
        <time>2019-04-08T11:58:29Z</time>
      </trkpt>
      <trkpt lat="45.39333" lon="5.9352">
        <ele>800</ele>
        <time>2019-04-08T11:59:29Z</time>
      </trkpt>
      <trkpt lat="45.39217" lon="5.93473">
        <ele>793</ele>
        <time>2019-04-08T12:00:29Z</time>
      </trkpt>
      <trkpt lat="45.39128" lon="5.93527">
        <ele>776</ele>
        <time>2019-04-08T12:01:29Z</time>
      </trkpt>
      <trkpt lat="45.39166" lon="5.93606">
        <ele>771</ele>
        <time>2019-04-08T12:02:29Z</time>
      </trkpt>
      <trkpt lat="45.39242" lon="5.93758">
        <ele>755</ele>
        <time>2019-04-08T12:03:29Z</time>
      </trkpt>
      <trkpt lat="45.39402" lon="5.93801">
        <ele>745</ele>
        <time>2019-04-08T12:04:29Z</time>
      </trkpt>
      <trkpt lat="45.39458" lon="5.93862">
        <ele>746</ele>
        <time>2019-04-08T12:05:29Z</time>
      </trkpt>
      <trkpt lat="45.39242" lon="5.94212">
        <ele>738</ele>
        <time>2019-04-08T12:06:29Z</time>
      </trkpt>
      <trkpt lat="45.39242" lon="5.94259">
        <ele>731</ele>
        <time>2019-04-08T12:07:29Z</time>
      </trkpt>
      <trkpt lat="45.39322" lon="5.94259">
        <ele>759</ele>
        <time>2019-04-08T12:08:29Z</time>
      </trkpt>
      <trkpt lat="45.39321" lon="5.94409">
        <ele>747</ele>
        <time>2019-04-08T12:09:29Z</time>
      </trkpt>
      <trkpt lat="45.3931" lon="5.94443">
        <ele>752</ele>
        <time>2019-04-08T12:10:29Z</time>
      </trkpt>
      <trkpt lat="45.39287" lon="5.94457">
        <ele>750</ele>
        <time>2019-04-08T12:11:29Z</time>
      </trkpt>
      <trkpt lat="45.3929" lon="5.9436">
        <ele>729</ele>
        <time>2019-04-08T12:12:29Z</time>
      </trkpt>
      <trkpt lat="45.39186" lon="5.94294">
        <ele>687</ele>
        <time>2019-04-08T12:13:29Z</time>
      </trkpt>
      <trkpt lat="45.39075" lon="5.94126">
        <ele>656</ele>
        <time>2019-04-08T12:14:29Z</time>
      </trkpt>
      <trkpt lat="45.39035" lon="5.94011">
        <ele>676</ele>
        <time>2019-04-08T12:15:29Z</time>
      </trkpt>
      <trkpt lat="45.39061" lon="5.94058">
        <ele>669</ele>
        <time>2019-04-08T12:16:29Z</time>
      </trkpt>
      <trkpt lat="45.39074" lon="5.94124">
        <ele>656</ele>
        <time>2019-04-08T12:17:29Z</time>
      </trkpt>
      <trkpt lat="45.39153" lon="5.94219">
        <ele>685</ele>
        <time>2019-04-08T12:18:29Z</time>
      </trkpt>
      <trkpt lat="45.39177" lon="5.94309">
        <ele>680</ele>
        <time>2019-04-08T12:19:29Z</time>
      </trkpt>
      <trkpt lat="45.39123" lon="5.94378">
        <ele>648</ele>
        <time>2019-04-08T12:20:29Z</time>
      </trkpt>
      <trkpt lat="45.39049" lon="5.94545">
        <ele>618</ele>
        <time>2019-04-08T12:21:29Z</time>
      </trkpt>
      <trkpt lat="45.39011" lon="5.94687">
        <ele>599</ele>
        <time>2019-04-08T12:22:29Z</time>
      </trkpt>
      <trkpt lat="45.39001" lon="5.94865">
        <ele>580</ele>
        <time>2019-04-08T12:23:29Z</time>
      </trkpt>
      <trkpt lat="45.39031" lon="5.94908">
        <ele>584</ele>
        <time>2019-04-08T12:24:29Z</time>
      </trkpt>
      <trkpt lat="45.39049" lon="5.94944">
        <ele>581</ele>
        <time>2019-04-08T12:25:29Z</time>
      </trkpt>
      <trkpt lat="45.39076" lon="5.95017">
        <ele>570</ele>
        <time>2019-04-08T12:26:29Z</time>
      </trkpt>
      <trkpt lat="45.39075" lon="5.95073">
        <ele>560</ele>
        <time>2019-04-08T12:27:29Z</time>
      </trkpt>
      <trkpt lat="45.39051" lon="5.95201">
        <ele>533</ele>
        <time>2019-04-08T12:28:29Z</time>
      </trkpt>
      <trkpt lat="45.39141" lon="5.95427">
        <ele>521</ele>
        <time>2019-04-08T12:29:29Z</time>
      </trkpt>
      <trkpt lat="45.39192" lon="5.95538">
        <ele>504</ele>
        <time>2019-04-08T12:30:29Z</time>
      </trkpt>
      <trkpt lat="45.3903" lon="5.95528">
        <ele>450</ele>
        <time>2019-04-08T12:31:29Z</time>
      </trkpt>
      <trkpt lat="45.39002" lon="5.95493">
        <ele>447</ele>
        <time>2019-04-08T12:32:29Z</time>
      </trkpt>
      <trkpt lat="45.38948" lon="5.95483">
        <ele>431</ele>
        <time>2019-04-08T12:33:29Z</time>
      </trkpt>
      <trkpt lat="45.38787" lon="5.95427">
        <ele>400</ele>
        <time>2019-04-08T12:34:29Z</time>
      </trkpt>
    </trkseg>
  </trk>
  <trk>
    <name><![CDATA[20190415194450-FXGEH]]></name>
    <trkseg>
      <trkpt lat="45.40599" lon="5.955">
        <ele>925.1</ele>
      </trkpt>
      <trkpt lat="45.40599" lon="5.955">
        <ele>925.1</ele>
      </trkpt>
      <trkpt lat="45.40638" lon="5.95473">
        <ele>920.4</ele>
      </trkpt>
      <trkpt lat="45.4069" lon="5.95461">
        <ele>893.4</ele>
      </trkpt>
      <trkpt lat="45.40773" lon="5.95436">
        <ele>860</ele>
      </trkpt>
      <trkpt lat="45.40815" lon="5.95409">
        <ele>857.2</ele>
      </trkpt>
      <trkpt lat="45.40834" lon="5.95409">
        <ele>847.5</ele>
      </trkpt>
      <trkpt lat="45.40844" lon="5.95426">
        <ele>841</ele>
      </trkpt>
      <trkpt lat="45.40865" lon="5.95484">
        <ele>832.2</ele>
      </trkpt>
      <trkpt lat="45.40874" lon="5.95484">
        <ele>832.7</ele>
      </trkpt>
      <trkpt lat="45.40893" lon="5.95505">
        <ele>813.6</ele>
      </trkpt>
      <trkpt lat="45.40915" lon="5.9552">
        <ele>814.4</ele>
      </trkpt>
      <trkpt lat="45.40952" lon="5.95567">
        <ele>828.6</ele>
      </trkpt>
      <trkpt lat="45.40967" lon="5.95595">
        <ele>809.7</ele>
      </trkpt>
      <trkpt lat="45.41014" lon="5.95656">
        <ele>831.8</ele>
      </trkpt>
      <trkpt lat="45.41047" lon="5.95689">
        <ele>833.6</ele>
      </trkpt>
      <trkpt lat="45.41089" lon="5.95742">
        <ele>860.9</ele>
      </trkpt>
      <trkpt lat="45.41107" lon="5.95767">
        <ele>845</ele>
      </trkpt>
      <trkpt lat="45.4115" lon="5.95809">
        <ele>837.4</ele>
      </trkpt>
      <trkpt lat="45.41196" lon="5.95839">
        <ele>832.2</ele>
      </trkpt>
      <trkpt lat="45.4125" lon="5.95859">
        <ele>849</ele>
      </trkpt>
      <trkpt lat="45.41305" lon="5.95883">
        <ele>874.5</ele>
      </trkpt>
      <trkpt lat="45.41366" lon="5.95942">
        <ele>865.3</ele>
      </trkpt>
      <trkpt lat="45.41377" lon="5.95959">
        <ele>862.3</ele>
      </trkpt>
      <trkpt lat="45.41404" lon="5.96027">
        <ele>839.9</ele>
      </trkpt>
      <trkpt lat="45.41415" lon="5.96026">
        <ele>842.8</ele>
      </trkpt>
      <trkpt lat="45.41459" lon="5.9598">
        <ele>883.4</ele>
      </trkpt>
      <trkpt lat="45.41532" lon="5.95936">
        <ele>894.2</ele>
      </trkpt>
      <trkpt lat="45.41562" lon="5.95926">
        <ele>895.7</ele>
      </trkpt>
      <trkpt lat="45.41579" lon="5.95882">
        <ele>897.5</ele>
      </trkpt>
      <trkpt lat="45.41603" lon="5.95865">
        <ele>900.6</ele>
      </trkpt>
      <trkpt lat="45.41626" lon="5.95881">
        <ele>901.5</ele>
      </trkpt>
      <trkpt lat="45.41642" lon="5.95882">
        <ele>902.2</ele>
      </trkpt>
      <trkpt lat="45.41692" lon="5.95875">
        <ele>910.2</ele>
      </trkpt>
      <trkpt lat="45.4177" lon="5.9585">
        <ele>920.8</ele>
      </trkpt>
      <trkpt lat="45.41801" lon="5.95809">
        <ele>931.2</ele>
      </trkpt>
      <trkpt lat="45.41813" lon="5.9577">
        <ele>935</ele>
      </trkpt>
      <trkpt lat="45.41823" lon="5.95727">
        <ele>942.1</ele>
      </trkpt>
      <trkpt lat="45.41848" lon="5.95691">
        <ele>947.2</ele>
      </trkpt>
      <trkpt lat="45.41831" lon="5.95672">
        <ele>943.2</ele>
      </trkpt>
      <trkpt lat="45.41796" lon="5.95661">
        <ele>947.4</ele>
      </trkpt>
      <trkpt lat="45.41777" lon="5.95623">
        <ele>948.4</ele>
      </trkpt>
      <trkpt lat="45.41707" lon="5.95525">
        <ele>950.7</ele>
      </trkpt>
      <trkpt lat="45.41662" lon="5.95465">
        <ele>948.6</ele>
      </trkpt>
    </trkseg>
  </trk>
  <trk>
    <name><![CDATA[20190415194450-FXGEH]]></name>
    <trkseg>
      <trkpt lat="45.38836" lon="5.95432">
        <ele>410.2</ele>
      </trkpt>
      <trkpt lat="45.3889" lon="5.95451">
        <ele>416.2</ele>
      </trkpt>
      <trkpt lat="45.38995" lon="5.95503">
        <ele>441.1</ele>
      </trkpt>
      <trkpt lat="45.39172" lon="5.95543">
        <ele>502.9</ele>
      </trkpt>
      <trkpt lat="45.39187" lon="5.95531">
        <ele>506.9</ele>
      </trkpt>
      <trkpt lat="45.39138" lon="5.95444">
        <ele>509.7</ele>
      </trkpt>
      <trkpt lat="45.39212" lon="5.95493">
        <ele>532.2</ele>
      </trkpt>
      <trkpt lat="45.39286" lon="5.9554">
        <ele>532</ele>
      </trkpt>
      <trkpt lat="45.39325" lon="5.95611">
        <ele>514.2</ele>
      </trkpt>
      <trkpt lat="45.39348" lon="5.9564">
        <ele>520.9</ele>
      </trkpt>
      <trkpt lat="45.39406" lon="5.95676">
        <ele>512.1</ele>
      </trkpt>
      <trkpt lat="45.39445" lon="5.95693">
        <ele>513.2</ele>
      </trkpt>
      <trkpt lat="45.39523" lon="5.95754">
        <ele>500.2</ele>
      </trkpt>
      <trkpt lat="45.39618" lon="5.95825">
        <ele>498.4</ele>
      </trkpt>
      <trkpt lat="45.39659" lon="5.95841">
        <ele>485.7</ele>
      </trkpt>
      <trkpt lat="45.39734" lon="5.95908">
        <ele>484.5</ele>
      </trkpt>
      <trkpt lat="45.39817" lon="5.9598">
        <ele>476.1</ele>
      </trkpt>
      <trkpt lat="45.39931" lon="5.96083">
        <ele>471.2</ele>
      </trkpt>
      <trkpt lat="45.40004" lon="5.96144">
        <ele>465.7</ele>
      </trkpt>
      <trkpt lat="45.40024" lon="5.96111">
        <ele>474.5</ele>
      </trkpt>
      <trkpt lat="45.4004" lon="5.96101">
        <ele>477.1</ele>
      </trkpt>
      <trkpt lat="45.40046" lon="5.96101">
        <ele>477.9</ele>
      </trkpt>
      <trkpt lat="45.40073" lon="5.96118">
        <ele>477.9</ele>
      </trkpt>
      <trkpt lat="45.40103" lon="5.96117">
        <ele>489.4</ele>
      </trkpt>
      <trkpt lat="45.401" lon="5.96108">
        <ele>491.3</ele>
      </trkpt>
      <trkpt lat="45.40084" lon="5.96093">
        <ele>494.6</ele>
      </trkpt>
      <trkpt lat="45.40084" lon="5.96085">
        <ele>496.6</ele>
      </trkpt>
      <trkpt lat="45.40131" lon="5.9608">
        <ele>520.9</ele>
      </trkpt>
      <trkpt lat="45.40147" lon="5.96078">
        <ele>521.7</ele>
      </trkpt>
      <trkpt lat="45.40165" lon="5.96082">
        <ele>518.1</ele>
      </trkpt>
      <trkpt lat="45.4019" lon="5.96086">
        <ele>516.7</ele>
      </trkpt>
      <trkpt lat="45.40215" lon="5.96082">
        <ele>545.4</ele>
      </trkpt>
      <trkpt lat="45.40248" lon="5.96086">
        <ele>542.9</ele>
      </trkpt>
      <trkpt lat="45.40267" lon="5.96079">
        <ele>561.1</ele>
      </trkpt>
      <trkpt lat="45.40301" lon="5.96093">
        <ele>550</ele>
      </trkpt>
      <trkpt lat="45.40311" lon="5.9609">
        <ele>554.4</ele>
      </trkpt>
      <trkpt lat="45.4032" lon="5.96097">
        <ele>556</ele>
      </trkpt>
      <trkpt lat="45.40372" lon="5.961">
        <ele>570.7</ele>
      </trkpt>
      <trkpt lat="45.40418" lon="5.96094">
        <ele>590.6</ele>
      </trkpt>
      <trkpt lat="45.40455" lon="5.96069">
        <ele>616.3</ele>
      </trkpt>
      <trkpt lat="45.40449" lon="5.96047">
        <ele>619.5</ele>
      </trkpt>
      <trkpt lat="45.40461" lon="5.9603">
        <ele>624.6</ele>
      </trkpt>
      <trkpt lat="45.40489" lon="5.96037">
        <ele>627.3</ele>
      </trkpt>
      <trkpt lat="45.40528" lon="5.96028">
        <ele>639.4</ele>
      </trkpt>
      <trkpt lat="45.40566" lon="5.95992">
        <ele>667.6</ele>
      </trkpt>
      <trkpt lat="45.40579" lon="5.95987">
        <ele>666.8</ele>
      </trkpt>
      <trkpt lat="45.40609" lon="5.95977">
        <ele>666.3</ele>
      </trkpt>
      <trkpt lat="45.40615" lon="5.95971">
        <ele>667.1</ele>
      </trkpt>
      <trkpt lat="45.40628" lon="5.95936">
        <ele>672.7</ele>
      </trkpt>
      <trkpt lat="45.40638" lon="5.95914">
        <ele>695.2</ele>
      </trkpt>
      <trkpt lat="45.40646" lon="5.95888">
        <ele>698.8</ele>
      </trkpt>
      <trkpt lat="45.40647" lon="5.95872">
        <ele>703.5</ele>
      </trkpt>
      <trkpt lat="45.40661" lon="5.95818">
        <ele>726.3</ele>
      </trkpt>
      <trkpt lat="45.40681" lon="5.95767">
        <ele>721.5</ele>
      </trkpt>
      <trkpt lat="45.40702" lon="5.95733">
        <ele>747.4</ele>
      </trkpt>
      <trkpt lat="45.40725" lon="5.95711">
        <ele>746.7</ele>
      </trkpt>
      <trkpt lat="45.40736" lon="5.95675">
        <ele>748.9</ele>
      </trkpt>
      <trkpt lat="45.40738" lon="5.95666">
        <ele>770.9</ele>
      </trkpt>
      <trkpt lat="45.40722" lon="5.95659">
        <ele>794.1</ele>
      </trkpt>
      <trkpt lat="45.40685" lon="5.9564">
        <ele>822.6</ele>
      </trkpt>
      <trkpt lat="45.40708" lon="5.95619">
        <ele>820.4</ele>
      </trkpt>
      <trkpt lat="45.4072" lon="5.95604">
        <ele>819.3</ele>
      </trkpt>
      <trkpt lat="45.40719" lon="5.95592">
        <ele>822</ele>
      </trkpt>
      <trkpt lat="45.40681" lon="5.956">
        <ele>853.1</ele>
      </trkpt>
      <trkpt lat="45.40655" lon="5.956">
        <ele>885.9</ele>
      </trkpt>
      <trkpt lat="45.40638" lon="5.95619">
        <ele>876.4</ele>
      </trkpt>
      <trkpt lat="45.40627" lon="5.9563">
        <ele>873.5</ele>
      </trkpt>
      <trkpt lat="45.40604" lon="5.95642">
        <ele>873.3</ele>
      </trkpt>
      <trkpt lat="45.40581" lon="5.95642">
        <ele>875.2</ele>
      </trkpt>
      <trkpt lat="45.40571" lon="5.95638">
        <ele>876.2</ele>
      </trkpt>
      <trkpt lat="45.40566" lon="5.95628">
        <ele>879.1</ele>
      </trkpt>
      <trkpt lat="45.40572" lon="5.95623">
        <ele>881.7</ele>
      </trkpt>
      <trkpt lat="45.40588" lon="5.95616">
        <ele>885</ele>
      </trkpt>
      <trkpt lat="45.406" lon="5.956">
        <ele>891</ele>
      </trkpt>
      <trkpt lat="45.40603" lon="5.9558">
        <ele>912.8</ele>
      </trkpt>
      <trkpt lat="45.40595" lon="5.95581">
        <ele>912.7</ele>
      </trkpt>
      <trkpt lat="45.40592" lon="5.95567">
        <ele>913.7</ele>
      </trkpt>
      <trkpt lat="45.40589" lon="5.95551">
        <ele>915.8</ele>
      </trkpt>
      <trkpt lat="45.40593" lon="5.95528">
        <ele>920.1</ele>
      </trkpt>
      <trkpt lat="45.40594" lon="5.95509">
        <ele>926</ele>
      </trkpt>
      <trkpt lat="45.40614" lon="5.95484">
        <ele>925.3</ele>
      </trkpt>
      <trkpt lat="45.40624" lon="5.95476">
        <ele>923</ele>
      </trkpt>
      <trkpt lat="45.40684" lon="5.95464">
        <ele>894.4</ele>
      </trkpt>
      <trkpt lat="45.4072" lon="5.95449">
        <ele>887.2</ele>
      </trkpt>
      <trkpt lat="45.40774" lon="5.95432">
        <ele>860.3</ele>
      </trkpt>
      <trkpt lat="45.40816" lon="5.95406">
        <ele>857.3</ele>
      </trkpt>
      <trkpt lat="45.40833" lon="5.95413">
        <ele>846.7</ele>
      </trkpt>
      <trkpt lat="45.4084" lon="5.95422">
        <ele>842.6</ele>
      </trkpt>
      <trkpt lat="45.40848" lon="5.9545">
        <ele>836.3</ele>
      </trkpt>
      <trkpt lat="45.40866" lon="5.95483">
        <ele>832.5</ele>
      </trkpt>
      <trkpt lat="45.40876" lon="5.95482">
        <ele>833</ele>
      </trkpt>
      <trkpt lat="45.40888" lon="5.95504">
        <ele>812.2</ele>
      </trkpt>
      <trkpt lat="45.40907" lon="5.95508">
        <ele>819</ele>
      </trkpt>
      <trkpt lat="45.40955" lon="5.95566">
        <ele>829.7</ele>
      </trkpt>
      <trkpt lat="45.40966" lon="5.95591">
        <ele>810.6</ele>
      </trkpt>
      <trkpt lat="45.40996" lon="5.9563">
        <ele>807.9</ele>
      </trkpt>
      <trkpt lat="45.41048" lon="5.95691">
        <ele>833.4</ele>
      </trkpt>
      <trkpt lat="45.41097" lon="5.95757">
        <ele>847.8</ele>
      </trkpt>
      <trkpt lat="45.41153" lon="5.95808">
        <ele>837.7</ele>
      </trkpt>
      <trkpt lat="45.41201" lon="5.95838">
        <ele>834</ele>
      </trkpt>
      <trkpt lat="45.41305" lon="5.95881">
        <ele>875.2</ele>
      </trkpt>
      <trkpt lat="45.41353" lon="5.95926">
        <ele>868.4</ele>
      </trkpt>
      <trkpt lat="45.4137" lon="5.95952">
        <ele>862.9</ele>
      </trkpt>
      <trkpt lat="45.41407" lon="5.96032">
        <ele>839.1</ele>
      </trkpt>
      <trkpt lat="45.41412" lon="5.9603">
        <ele>840.8</ele>
      </trkpt>
      <trkpt lat="45.41457" lon="5.95979">
        <ele>883.2</ele>
      </trkpt>
      <trkpt lat="45.4152" lon="5.9594">
        <ele>893.6</ele>
      </trkpt>
      <trkpt lat="45.4154" lon="5.95929">
        <ele>894.6</ele>
      </trkpt>
      <trkpt lat="45.4156" lon="5.95921">
        <ele>895.7</ele>
      </trkpt>
      <trkpt lat="45.41576" lon="5.95882">
        <ele>897.5</ele>
      </trkpt>
      <trkpt lat="45.41599" lon="5.95864">
        <ele>900.4</ele>
      </trkpt>
      <trkpt lat="45.41611" lon="5.95867">
        <ele>900.9</ele>
      </trkpt>
      <trkpt lat="45.41632" lon="5.95883">
        <ele>901.7</ele>
      </trkpt>
      <trkpt lat="45.41696" lon="5.9587">
        <ele>910.5</ele>
      </trkpt>
      <trkpt lat="45.41736" lon="5.95862">
        <ele>913.9</ele>
      </trkpt>
      <trkpt lat="45.41769" lon="5.95846">
        <ele>920.9</ele>
      </trkpt>
      <trkpt lat="45.41801" lon="5.95807">
        <ele>931.3</ele>
      </trkpt>
      <trkpt lat="45.41821" lon="5.95727">
        <ele>942.2</ele>
      </trkpt>
      <trkpt lat="45.41849" lon="5.95686">
        <ele>947.2</ele>
      </trkpt>
      <trkpt lat="45.41846" lon="5.95673">
        <ele>946.2</ele>
      </trkpt>
      <trkpt lat="45.41838" lon="5.95669">
        <ele>944.3</ele>
      </trkpt>
      <trkpt lat="45.41821" lon="5.95663">
        <ele>945.2</ele>
      </trkpt>
      <trkpt lat="45.41808" lon="5.95656">
        <ele>946.8</ele>
      </trkpt>
      <trkpt lat="45.41801" lon="5.95649">
        <ele>947.4</ele>
      </trkpt>
      <trkpt lat="45.41782" lon="5.95615">
        <ele>948.4</ele>
      </trkpt>
      <trkpt lat="45.41745" lon="5.95568">
        <ele>949.4</ele>
      </trkpt>
      <trkpt lat="45.41687" lon="5.95503">
        <ele>950.1</ele>
      </trkpt>
      <trkpt lat="45.41658" lon="5.95463">
        <ele>948.5</ele>
      </trkpt>
      <trkpt lat="45.41642" lon="5.9542">
        <ele>948.3</ele>
      </trkpt>
      <trkpt lat="45.41614" lon="5.95372">
        <ele>952.5</ele>
      </trkpt>
      <trkpt lat="45.41617" lon="5.95347">
        <ele>953.9</ele>
      </trkpt>
      <trkpt lat="45.41614" lon="5.95336">
        <ele>954</ele>
      </trkpt>
      <trkpt lat="45.41592" lon="5.95315">
        <ele>961.2</ele>
      </trkpt>
      <trkpt lat="45.41582" lon="5.95299">
        <ele>953.1</ele>
      </trkpt>
      <trkpt lat="45.41575" lon="5.95264">
        <ele>959.8</ele>
      </trkpt>
      <trkpt lat="45.41576" lon="5.95252">
        <ele>964</ele>
      </trkpt>
      <trkpt lat="45.41592" lon="5.95194">
        <ele>987.5</ele>
      </trkpt>
      <trkpt lat="45.41584" lon="5.95143">
        <ele>997.1</ele>
      </trkpt>
      <trkpt lat="45.41575" lon="5.95129">
        <ele>985</ele>
      </trkpt>
      <trkpt lat="45.41572" lon="5.95086">
        <ele>992.3</ele>
      </trkpt>
      <trkpt lat="45.41572" lon="5.95042">
        <ele>996.1</ele>
      </trkpt>
      <trkpt lat="45.41564" lon="5.95001">
        <ele>999.6</ele>
      </trkpt>
      <trkpt lat="45.41561" lon="5.94972">
        <ele>1004</ele>
      </trkpt>
      <trkpt lat="45.41553" lon="5.94946">
        <ele>1004.9</ele>
      </trkpt>
      <trkpt lat="45.41552" lon="5.94928">
        <ele>1006.1</ele>
      </trkpt>
      <trkpt lat="45.41549" lon="5.94906">
        <ele>1011.2</ele>
      </trkpt>
      <trkpt lat="45.41553" lon="5.94894">
        <ele>1011.9</ele>
      </trkpt>
      <trkpt lat="45.4155" lon="5.94874">
        <ele>1012.3</ele>
      </trkpt>
      <trkpt lat="45.41514" lon="5.94847">
        <ele>1008.5</ele>
      </trkpt>
      <trkpt lat="45.41491" lon="5.94832">
        <ele>1003.8</ele>
      </trkpt>
      <trkpt lat="45.41471" lon="5.94825">
        <ele>1001.5</ele>
      </trkpt>
      <trkpt lat="45.41468" lon="5.94808">
        <ele>1001.4</ele>
      </trkpt>
      <trkpt lat="45.41471" lon="5.94787">
        <ele>1002.6</ele>
      </trkpt>
      <trkpt lat="45.41482" lon="5.94747">
        <ele>1012.6</ele>
      </trkpt>
      <trkpt lat="45.41486" lon="5.94735">
        <ele>1013.2</ele>
      </trkpt>
      <trkpt lat="45.4148" lon="5.94721">
        <ele>1013.8</ele>
      </trkpt>
      <trkpt lat="45.41455" lon="5.94725">
        <ele>1011.5</ele>
      </trkpt>
      <trkpt lat="45.41434" lon="5.94717">
        <ele>1010.1</ele>
      </trkpt>
      <trkpt lat="45.41411" lon="5.94717">
        <ele>1001</ele>
      </trkpt>
      <trkpt lat="45.41362" lon="5.94664">
        <ele>1006.9</ele>
      </trkpt>
      <trkpt lat="45.41353" lon="5.94643">
        <ele>1007.5</ele>
      </trkpt>
      <trkpt lat="45.41322" lon="5.94616">
        <ele>1001.5</ele>
      </trkpt>
      <trkpt lat="45.41288" lon="5.9459">
        <ele>1001.4</ele>
      </trkpt>
      <trkpt lat="45.41213" lon="5.94528">
        <ele>1007.1</ele>
      </trkpt>
      <trkpt lat="45.41204" lon="5.94526">
        <ele>1006.8</ele>
      </trkpt>
      <trkpt lat="45.41192" lon="5.94527">
        <ele>1006.3</ele>
      </trkpt>
      <trkpt lat="45.4118" lon="5.94537">
        <ele>1005.1</ele>
      </trkpt>
      <trkpt lat="45.41171" lon="5.94541">
        <ele>1004.5</ele>
      </trkpt>
      <trkpt lat="45.41152" lon="5.94544">
        <ele>999.3</ele>
      </trkpt>
      <trkpt lat="45.41125" lon="5.94539">
        <ele>998.7</ele>
      </trkpt>
      <trkpt lat="45.41078" lon="5.94529">
        <ele>994.8</ele>
      </trkpt>
      <trkpt lat="45.41028" lon="5.94525">
        <ele>993</ele>
      </trkpt>
      <trkpt lat="45.40965" lon="5.94521">
        <ele>986.5</ele>
      </trkpt>
      <trkpt lat="45.40955" lon="5.94524">
        <ele>985.5</ele>
      </trkpt>
      <trkpt lat="45.40914" lon="5.94554">
        <ele>976.8</ele>
      </trkpt>
      <trkpt lat="45.409" lon="5.94555">
        <ele>976.3</ele>
      </trkpt>
      <trkpt lat="45.40874" lon="5.94557">
        <ele>974.7</ele>
      </trkpt>
      <trkpt lat="45.40831" lon="5.94569">
        <ele>965.8</ele>
      </trkpt>
      <trkpt lat="45.40765" lon="5.94548">
        <ele>962.9</ele>
      </trkpt>
      <trkpt lat="45.4074" lon="5.94547">
        <ele>956.3</ele>
      </trkpt>
      <trkpt lat="45.40724" lon="5.94556">
        <ele>955.2</ele>
      </trkpt>
      <trkpt lat="45.40693" lon="5.94553">
        <ele>953.5</ele>
      </trkpt>
      <trkpt lat="45.40681" lon="5.94542">
        <ele>954</ele>
      </trkpt>
      <trkpt lat="45.4067" lon="5.94545">
        <ele>953.3</ele>
      </trkpt>
      <trkpt lat="45.40643" lon="5.9452">
        <ele>948.9</ele>
      </trkpt>
      <trkpt lat="45.40623" lon="5.94497">
        <ele>955.2</ele>
      </trkpt>
      <trkpt lat="45.40615" lon="5.94487">
        <ele>954.6</ele>
      </trkpt>
      <trkpt lat="45.40591" lon="5.94456">
        <ele>955.5</ele>
      </trkpt>
      <trkpt lat="45.40562" lon="5.94446">
        <ele>949.9</ele>
      </trkpt>
      <trkpt lat="45.40502" lon="5.94438">
        <ele>949.4</ele>
      </trkpt>
      <trkpt lat="45.40458" lon="5.94425">
        <ele>945</ele>
      </trkpt>
      <trkpt lat="45.40415" lon="5.94405">
        <ele>945.7</ele>
      </trkpt>
      <trkpt lat="45.40394" lon="5.94386">
        <ele>945.5</ele>
      </trkpt>
      <trkpt lat="45.40372" lon="5.94359">
        <ele>945.8</ele>
      </trkpt>
      <trkpt lat="45.40351" lon="5.94337">
        <ele>945.8</ele>
      </trkpt>
      <trkpt lat="45.40324" lon="5.94318">
        <ele>946.3</ele>
      </trkpt>
      <trkpt lat="45.40307" lon="5.94287">
        <ele>947.6</ele>
      </trkpt>
      <trkpt lat="45.40276" lon="5.9428">
        <ele>946.1</ele>
      </trkpt>
      <trkpt lat="45.40233" lon="5.94249">
        <ele>945.5</ele>
      </trkpt>
      <trkpt lat="45.40221" lon="5.94236">
        <ele>944.6</ele>
      </trkpt>
      <trkpt lat="45.40205" lon="5.94202">
        <ele>944.9</ele>
      </trkpt>
      <trkpt lat="45.4016" lon="5.94087">
        <ele>947.2</ele>
      </trkpt>
      <trkpt lat="45.4015" lon="5.94058">
        <ele>943.7</ele>
      </trkpt>
      <trkpt lat="45.40139" lon="5.93999">
        <ele>941.6</ele>
      </trkpt>
      <trkpt lat="45.40135" lon="5.94002">
        <ele>942.4</ele>
      </trkpt>
      <trkpt lat="45.40125" lon="5.93983">
        <ele>938</ele>
      </trkpt>
      <trkpt lat="45.40116" lon="5.93976">
        <ele>936.2</ele>
      </trkpt>
      <trkpt lat="45.40095" lon="5.93971">
        <ele>933.2</ele>
      </trkpt>
      <trkpt lat="45.40082" lon="5.93975">
        <ele>918.2</ele>
      </trkpt>
      <trkpt lat="45.40064" lon="5.94009">
        <ele>920.7</ele>
      </trkpt>
      <trkpt lat="45.40046" lon="5.9403">
        <ele>916.6</ele>
      </trkpt>
      <trkpt lat="45.40034" lon="5.94035">
        <ele>914.9</ele>
      </trkpt>
      <trkpt lat="45.40017" lon="5.9403">
        <ele>912.4</ele>
      </trkpt>
      <trkpt lat="45.40002" lon="5.94021">
        <ele>909.7</ele>
      </trkpt>
      <trkpt lat="45.39989" lon="5.94004">
        <ele>897.4</ele>
      </trkpt>
      <trkpt lat="45.39968" lon="5.93963">
        <ele>886.2</ele>
      </trkpt>
      <trkpt lat="45.39959" lon="5.93953">
        <ele>884.2</ele>
      </trkpt>
      <trkpt lat="45.3996" lon="5.93941">
        <ele>884.2</ele>
      </trkpt>
      <trkpt lat="45.39939" lon="5.93944">
        <ele>880.2</ele>
      </trkpt>
      <trkpt lat="45.39931" lon="5.93941">
        <ele>878.8</ele>
      </trkpt>
      <trkpt lat="45.3993" lon="5.93928">
        <ele>876.5</ele>
      </trkpt>
      <trkpt lat="45.39929" lon="5.93907">
        <ele>873.7</ele>
      </trkpt>
      <trkpt lat="45.39943" lon="5.9388">
        <ele>876.8</ele>
      </trkpt>
      <trkpt lat="45.39954" lon="5.93855">
        <ele>877.3</ele>
      </trkpt>
      <trkpt lat="45.39956" lon="5.93842">
        <ele>877.2</ele>
      </trkpt>
      <trkpt lat="45.39947" lon="5.93828">
        <ele>873.7</ele>
      </trkpt>
      <trkpt lat="45.39936" lon="5.93816">
        <ele>871.8</ele>
      </trkpt>
      <trkpt lat="45.39924" lon="5.93812">
        <ele>870.4</ele>
      </trkpt>
      <trkpt lat="45.39896" lon="5.93786">
        <ele>855.7</ele>
      </trkpt>
      <trkpt lat="45.39881" lon="5.93767">
        <ele>854.7</ele>
      </trkpt>
      <trkpt lat="45.39869" lon="5.93754">
        <ele>853</ele>
      </trkpt>
      <trkpt lat="45.39853" lon="5.93746">
        <ele>858.1</ele>
      </trkpt>
      <trkpt lat="45.39823" lon="5.93746">
        <ele>846.2</ele>
      </trkpt>
      <trkpt lat="45.39812" lon="5.93737">
        <ele>845.3</ele>
      </trkpt>
      <trkpt lat="45.39794" lon="5.93721">
        <ele>844</ele>
      </trkpt>
      <trkpt lat="45.39784" lon="5.93713">
        <ele>843.3</ele>
      </trkpt>
      <trkpt lat="45.39765" lon="5.937">
        <ele>842.3</ele>
      </trkpt>
      <trkpt lat="45.39756" lon="5.9369">
        <ele>842.1</ele>
      </trkpt>
      <trkpt lat="45.39745" lon="5.93653">
        <ele>838.5</ele>
      </trkpt>
      <trkpt lat="45.39734" lon="5.93639">
        <ele>837.8</ele>
      </trkpt>
      <trkpt lat="45.39727" lon="5.93631">
        <ele>837.6</ele>
      </trkpt>
      <trkpt lat="45.39691" lon="5.93611">
        <ele>834.7</ele>
      </trkpt>
      <trkpt lat="45.39684" lon="5.93601">
        <ele>834.3</ele>
      </trkpt>
      <trkpt lat="45.39675" lon="5.93581">
        <ele>837.9</ele>
      </trkpt>
      <trkpt lat="45.39649" lon="5.9355">
        <ele>830.2</ele>
      </trkpt>
      <trkpt lat="45.39585" lon="5.93465">
        <ele>832.6</ele>
      </trkpt>
      <trkpt lat="45.39575" lon="5.93427">
        <ele>822.6</ele>
      </trkpt>
      <trkpt lat="45.39572" lon="5.93421">
        <ele>822.8</ele>
      </trkpt>
      <trkpt lat="45.39554" lon="5.93389">
        <ele>827.2</ele>
      </trkpt>
      <trkpt lat="45.39527" lon="5.93388">
        <ele>825.2</ele>
      </trkpt>
      <trkpt lat="45.39505" lon="5.93422">
        <ele>814.5</ele>
      </trkpt>
      <trkpt lat="45.39492" lon="5.93435">
        <ele>812</ele>
      </trkpt>
      <trkpt lat="45.39478" lon="5.93445">
        <ele>811.2</ele>
      </trkpt>
      <trkpt lat="45.39447" lon="5.93491">
        <ele>809.3</ele>
      </trkpt>
      <trkpt lat="45.3941" lon="5.93505">
        <ele>805.2</ele>
      </trkpt>
      <trkpt lat="45.39394" lon="5.93517">
        <ele>801.7</ele>
      </trkpt>
      <trkpt lat="45.39351" lon="5.93533">
        <ele>799.4</ele>
      </trkpt>
      <trkpt lat="45.39331" lon="5.93527">
        <ele>796.9</ele>
      </trkpt>
      <trkpt lat="45.3929" lon="5.93504">
        <ele>795.7</ele>
      </trkpt>
      <trkpt lat="45.39213" lon="5.9348">
        <ele>793.1</ele>
      </trkpt>
      <trkpt lat="45.39193" lon="5.93477">
        <ele>791.5</ele>
      </trkpt>
      <trkpt lat="45.39171" lon="5.93491">
        <ele>787.2</ele>
      </trkpt>
      <trkpt lat="45.39151" lon="5.93502">
        <ele>779.2</ele>
      </trkpt>
      <trkpt lat="45.39119" lon="5.93531">
        <ele>774</ele>
      </trkpt>
      <trkpt lat="45.39124" lon="5.93548">
        <ele>773.2</ele>
      </trkpt>
      <trkpt lat="45.39138" lon="5.93576">
        <ele>773.2</ele>
      </trkpt>
      <trkpt lat="45.39168" lon="5.93619">
        <ele>771.8</ele>
      </trkpt>
      <trkpt lat="45.39172" lon="5.93632">
        <ele>770.2</ele>
      </trkpt>
      <trkpt lat="45.39184" lon="5.93663">
        <ele>766.5</ele>
      </trkpt>
      <trkpt lat="45.39197" lon="5.93696">
        <ele>759</ele>
      </trkpt>
      <trkpt lat="45.39208" lon="5.93727">
        <ele>757.1</ele>
      </trkpt>
      <trkpt lat="45.39235" lon="5.93762">
        <ele>749.1</ele>
      </trkpt>
      <trkpt lat="45.39252" lon="5.93778">
        <ele>749.9</ele>
      </trkpt>
      <trkpt lat="45.3929" lon="5.93784">
        <ele>748.1</ele>
      </trkpt>
      <trkpt lat="45.3932" lon="5.93793">
        <ele>746.6</ele>
      </trkpt>
      <trkpt lat="45.39354" lon="5.93803">
        <ele>745</ele>
      </trkpt>
      <trkpt lat="45.39378" lon="5.9382">
        <ele>743.9</ele>
      </trkpt>
      <trkpt lat="45.39418" lon="5.93828">
        <ele>740.6</ele>
      </trkpt>
      <trkpt lat="45.39449" lon="5.93846">
        <ele>745</ele>
      </trkpt>
      <trkpt lat="45.39455" lon="5.93854">
        <ele>745.9</ele>
      </trkpt>
      <trkpt lat="45.3942" lon="5.93921">
        <ele>740.8</ele>
      </trkpt>
      <trkpt lat="45.39387" lon="5.93983">
        <ele>738.7</ele>
      </trkpt>
      <trkpt lat="45.39347" lon="5.94037">
        <ele>747.6</ele>
      </trkpt>
      <trkpt lat="45.39315" lon="5.94071">
        <ele>737.2</ele>
      </trkpt>
      <trkpt lat="45.39251" lon="5.94172">
        <ele>746.7</ele>
      </trkpt>
      <trkpt lat="45.39245" lon="5.94197">
        <ele>730.1</ele>
      </trkpt>
      <trkpt lat="45.3924" lon="5.94233">
        <ele>729.5</ele>
      </trkpt>
      <trkpt lat="45.3924" lon="5.94268">
        <ele>717.4</ele>
      </trkpt>
      <trkpt lat="45.39262" lon="5.94272">
        <ele>738</ele>
      </trkpt>
      <trkpt lat="45.39305" lon="5.94264">
        <ele>746.1</ele>
      </trkpt>
      <trkpt lat="45.39316" lon="5.94268">
        <ele>748.5</ele>
      </trkpt>
      <trkpt lat="45.39318" lon="5.94283">
        <ele>745.3</ele>
      </trkpt>
      <trkpt lat="45.39315" lon="5.94349">
        <ele>737</ele>
      </trkpt>
      <trkpt lat="45.39315" lon="5.94376">
        <ele>736.3</ele>
      </trkpt>
      <trkpt lat="45.39323" lon="5.94412">
        <ele>744.6</ele>
      </trkpt>
      <trkpt lat="45.3932" lon="5.94426">
        <ele>751.3</ele>
      </trkpt>
      <trkpt lat="45.39299" lon="5.94447">
        <ele>750.8</ele>
      </trkpt>
      <trkpt lat="45.39284" lon="5.9443">
        <ele>745.6</ele>
      </trkpt>
      <trkpt lat="45.3929" lon="5.94399">
        <ele>732.9</ele>
      </trkpt>
      <trkpt lat="45.39291" lon="5.94386">
        <ele>732.4</ele>
      </trkpt>
      <trkpt lat="45.39285" lon="5.94376">
        <ele>730.3</ele>
      </trkpt>
      <trkpt lat="45.39272" lon="5.94352">
        <ele>723.9</ele>
      </trkpt>
      <trkpt lat="45.39242" lon="5.94334">
        <ele>702.5</ele>
      </trkpt>
      <trkpt lat="45.39214" lon="5.94304">
        <ele>699.3</ele>
      </trkpt>
      <trkpt lat="45.39191" lon="5.94275">
        <ele>696.2</ele>
      </trkpt>
      <trkpt lat="45.39192" lon="5.94267">
        <ele>696.3</ele>
      </trkpt>
      <trkpt lat="45.39199" lon="5.94257">
        <ele>699.3</ele>
      </trkpt>
      <trkpt lat="45.39167" lon="5.94221">
        <ele>708.1</ele>
      </trkpt>
      <trkpt lat="45.39144" lon="5.94188">
        <ele>681</ele>
      </trkpt>
      <trkpt lat="45.39129" lon="5.94177">
        <ele>675</ele>
      </trkpt>
      <trkpt lat="45.39085" lon="5.94095">
        <ele>676.1</ele>
      </trkpt>
      <trkpt lat="45.39051" lon="5.94014">
        <ele>672.5</ele>
      </trkpt>
      <trkpt lat="45.39042" lon="5.94003">
        <ele>672.9</ele>
      </trkpt>
      <trkpt lat="45.39019" lon="5.93998">
        <ele>680.3</ele>
      </trkpt>
      <trkpt lat="45.38996" lon="5.94">
        <ele>678.8</ele>
      </trkpt>
      <trkpt lat="45.38994" lon="5.94028">
        <ele>675.4</ele>
      </trkpt>
      <trkpt lat="45.39008" lon="5.94044">
        <ele>666.4</ele>
      </trkpt>
      <trkpt lat="45.38982" lon="5.94047">
        <ele>672.1</ele>
      </trkpt>
      <trkpt lat="45.38971" lon="5.94075">
        <ele>667.8</ele>
      </trkpt>
      <trkpt lat="45.38994" lon="5.94094">
        <ele>640</ele>
      </trkpt>
      <trkpt lat="45.38991" lon="5.94108">
        <ele>633.5</ele>
      </trkpt>
      <trkpt lat="45.38981" lon="5.94146">
        <ele>617</ele>
      </trkpt>
      <trkpt lat="45.38958" lon="5.94156">
        <ele>618.5</ele>
      </trkpt>
      <trkpt lat="45.38967" lon="5.94184">
        <ele>586.8</ele>
      </trkpt>
      <trkpt lat="45.38956" lon="5.94225">
        <ele>580.5</ele>
      </trkpt>
      <trkpt lat="45.38965" lon="5.94263">
        <ele>562.4</ele>
      </trkpt>
      <trkpt lat="45.38944" lon="5.94295">
        <ele>556</ele>
      </trkpt>
      <trkpt lat="45.38938" lon="5.9433">
        <ele>547.3</ele>
      </trkpt>
      <trkpt lat="45.38909" lon="5.94358">
        <ele>527.8</ele>
      </trkpt>
      <trkpt lat="45.38876" lon="5.94354">
        <ele>530</ele>
      </trkpt>
      <trkpt lat="45.38865" lon="5.94372">
        <ele>527.6</ele>
      </trkpt>
      <trkpt lat="45.38887" lon="5.94375">
        <ele>525.7</ele>
      </trkpt>
      <trkpt lat="45.38859" lon="5.94395">
        <ele>522.8</ele>
      </trkpt>
      <trkpt lat="45.38856" lon="5.94426">
        <ele>508.2</ele>
      </trkpt>
      <trkpt lat="45.3885" lon="5.94477">
        <ele>501.7</ele>
      </trkpt>
      <trkpt lat="45.38842" lon="5.94523">
        <ele>496.8</ele>
      </trkpt>
      <trkpt lat="45.3884" lon="5.94592">
        <ele>489.9</ele>
      </trkpt>
      <trkpt lat="45.38825" lon="5.94613">
        <ele>480.4</ele>
      </trkpt>
      <trkpt lat="45.38796" lon="5.94687">
        <ele>472</ele>
      </trkpt>
      <trkpt lat="45.38767" lon="5.94776">
        <ele>462.5</ele>
      </trkpt>
      <trkpt lat="45.3875" lon="5.94832">
        <ele>445.5</ele>
      </trkpt>
      <trkpt lat="45.38763" lon="5.94862">
        <ele>455</ele>
      </trkpt>
      <trkpt lat="45.38782" lon="5.94908">
        <ele>455.4</ele>
      </trkpt>
      <trkpt lat="45.38785" lon="5.94959">
        <ele>447.6</ele>
      </trkpt>
      <trkpt lat="45.38775" lon="5.95074">
        <ele>434.3</ele>
      </trkpt>
      <trkpt lat="45.38769" lon="5.95153">
        <ele>421.9</ele>
      </trkpt>
      <trkpt lat="45.3878" lon="5.95214">
        <ele>414.5</ele>
      </trkpt>
      <trkpt lat="45.3881" lon="5.95288">
        <ele>409.1</ele>
      </trkpt>
      <trkpt lat="45.38812" lon="5.95315">
        <ele>408.4</ele>
      </trkpt>
      <trkpt lat="45.38794" lon="5.95397">
        <ele>402.3</ele>
      </trkpt>
      <trkpt lat="45.38796" lon="5.95423">
        <ele>400.5</ele>
      </trkpt>
      <trkpt lat="45.38834" lon="5.95453">
        <ele>411.5</ele>
      </trkpt>
      <trkpt lat="45.38828" lon="5.95433">
        <ele>403.6</ele>
      </trkpt>
    </trkseg>
  </trk>
</gpx>